This is the latest recevied weather packets stored in our database for station/object ON7EQ-13. If no packets are shown the sender has not sent any weather packets the latest 10 day(s).
| Time | Temp. | Humidity | Pressure | Rain* | Wind** | Luminosity | Snow |
|---|---|---|---|---|---|---|---|
| 1777630995 | 22.78° C | 35% | 1022.4 hPa | - | - | - | - |
| 1777630394 | 22.22° C | 34% | 1022.5 hPa | - | - | - | - |
| 1777629795 | 22.22° C | 36% | 1022.6 hPa | - | - | - | - |
| 1777629195 | 21.67° C | 37% | 1022.7 hPa | - | - | - | - |
| 1777628594 | 21.67° C | 37% | 1022.7 hPa | - | - | - | - |
| 1777627994 | 20.56° C | 38% | 1022.8 hPa | - | - | - | - |
| 1777627394 | 20.56° C | 37% | 1022.9 hPa | - | - | - | - |
| 1777626795 | 20° C | 38% | 1022.9 hPa | - | - | - | - |
| 1777626195 | 19.44° C | 37% | 1023 hPa | - | - | - | - |
| 1777625596 | 19.44° C | 39% | 1023 hPa | - | - | - | - |
| 1777624994 | 18.33° C | 37% | 1022.9 hPa | - | - | - | - |
| 1777624395 | 18.33° C | 38% | 1023 hPa | - | - | - | - |
| 1777623795 | 17.78° C | 41% | 1023 hPa | - | - | - | - |
| 1777623194 | 17.22° C | 41% | 1023.2 hPa | - | - | - | - |
| 1777622594 | 16.67° C | 42% | 1023.2 hPa | - | - | - | - |
| 1777621995 | 16.11° C | 41% | 1023.2 hPa | - | - | - | - |
| 1777621394 | 15.56° C | 41% | 1023.1 hPa | - | - | - | - |
| 1777620794 | 15° C | 44% | 1023 hPa | - | - | - | - |
| 1777620195 | 14.44° C | 48% | 1023 hPa | - | - | - | - |
| 1777619594 | 14.44° C | 50% | 1023 hPa | - | - | - | - |
| 1777618995 | 13.89° C | 51% | 1023.1 hPa | - | - | - | - |
| 1777618395 | 12.78° C | 52% | 1023 hPa | - | - | - | - |
| 1777617794 | 12.22° C | 54% | 1023 hPa | - | - | - | - |
| 1777617194 | 11.67° C | 55% | 1023.2 hPa | - | - | - | - |
| 1777616594 | 11.11° C | 55% | 1023.2 hPa | - | - | - | - |
* Rain since midnight (hover to see other rain measurements)
** Current wind speed in m/s (hover to see current wind gust speed)